Anchorage, AK

2:38 PM AKST on February 10, 2016 (GMT -0900)
Stevens Anchorage International

Weather History for PANC - February, 2013

Change the Weather History Date:

Tuesday, February 5, 2013

  Actual Average Record
Temperature  
Mean Temperature 25 °F 18 °F  
Max Temperature 30 °F 24 °F 47 °F (1995)
Min Temperature 20 °F 12 °F -27 °F (1999)
Degree Days  
Heating Degree Days 40    
Month to date heating degree days 180  
Since 1 July heating degree days 6500  
Cooling Degree Days 0    
Month to date cooling degree days 0  
Year to date cooling degree days 0  
Moisture  
Dew Point 23 °F    
Average Humidity 85    
Maximum Humidity 100    
Minimum Humidity 69    
Precipitation  
Precipitation 0.00 in 0.03 in 0.43 in (1978)
Month to date precipitation 0.02 0.14  
Year to date precipitation 1.24 0.87  
Snow  
Snow 0.00 in 0.40 in 7.10 in (1996)
Month to date snowfall 0.2 2.1  
Since 1 July snowfall 39.8 51.5  
Snow Depth 12.00 in    
Sea Level Pressure  
Sea Level Pressure 29.55 in    
Wind  
Wind Speed 1 mph (WNW)    
Max Wind Speed 7 mph    
Max Gust Speed -    
Visibility 9 miles    
Events Fog    
T = Trace of Precipitation, MM = Missing Value Source: NWS Daily Summary

Daily Weather History Graph

Daily Weather History Graph

Search for Another Location

Airport or City:

Trip Planner

Search our weather history database for the weather conditions in past years. The results will help you decide how hot, cold, wet, or windy it might be!

Date:

Astronomy

Feb. 05, 2013 Rise Set
Actual Time 9:08 AM AKST 5:20 PM AKST
Civil Twilight 8:20 AM AKST 6:08 PM AKST
Nautical Twilight 7:28 AM AKST 7:00 PM AKST
Astronomical Twilight 6:38 AM AKST 7:50 PM AKST
Moon 5:40 AM AKST (2/5) 12:07 PM AKST (2/5)
Length of Visible Light 9h 48m
Length of Day
8h 11m
Waning Crescent, 25% of the Moon is Illuminated
Feb 5
Waning Crescent
Feb 9
New
Feb 17
First Quarter
Feb 25
Full
Mar 4
Last Quarter

Hourly Weather History & Observations

Time (AKST) Temp. Windchill Dew Point Humidity Pressure Visibility Wind Dir Wind Speed Gust Speed Precip Events Conditions
12:53 AM 28.9 °F 23.9 °F 25.0 °F 85% 29.63 in 10.0 mi West 4.6 mph - N/A   Overcast
1:53 AM 28.0 °F 20.8 °F 26.1 °F 92% 29.63 in 10.0 mi West 6.9 mph - N/A   Overcast
2:53 AM 27.0 °F - 26.1 °F 96% 29.62 in 10.0 mi Calm Calm - N/A   Mostly Cloudy
3:53 AM 25.0 °F - 23.0 °F 92% 29.60 in 10.0 mi Calm Calm - N/A   Mostly Cloudy
4:53 AM 27.0 °F - 24.1 °F 89% 29.60 in 10.0 mi Calm Calm - N/A   Overcast
5:53 AM 28.9 °F - 26.1 °F 89% 29.59 in 10.0 mi Calm Calm - N/A   Overcast
6:53 AM 28.0 °F - 26.1 °F 92% 29.59 in 10.0 mi Calm Calm - N/A   Overcast
7:53 AM 27.0 °F - 25.0 °F 92% 29.58 in 10.0 mi Calm Calm - N/A   Overcast
8:53 AM 28.0 °F - 25.0 °F 88% 29.58 in 10.0 mi Calm Calm - N/A   Mostly Cloudy
9:53 AM 27.0 °F - 24.1 °F 89% 29.57 in 10.0 mi Calm Calm - N/A   Mostly Cloudy
10:53 AM 28.0 °F 24.2 °F 24.1 °F 85% 29.57 in 10.0 mi Variable 3.5 mph - N/A   Mostly Cloudy
11:53 AM 30.0 °F - 24.1 °F 79% 29.56 in 10.0 mi Calm Calm - N/A   Mostly Cloudy
12:53 PM 28.0 °F 22.8 °F 24.1 °F 85% 29.55 in 10.0 mi NNW 4.6 mph - N/A   Mostly Cloudy
1:53 PM 30.0 °F 25.2 °F 21.9 °F 72% 29.55 in 10.0 mi NNE 4.6 mph - N/A   Scattered Clouds
2:53 PM 30.0 °F - 21.0 °F 69% 29.53 in 10.0 mi Calm Calm - N/A   Scattered Clouds
3:53 PM 30.0 °F 26.5 °F 24.1 °F 79% 29.53 in 10.0 mi NNW 3.5 mph - N/A   Mostly Cloudy
4:53 PM 28.9 °F - 23.0 °F 78% 29.52 in 10.0 mi Calm Calm - N/A   Mostly Cloudy
5:53 PM 25.0 °F - 21.9 °F 88% 29.52 in 10.0 mi Calm Calm - N/A   Mostly Cloudy
6:53 PM 25.0 °F - 21.9 °F 88% 29.51 in 10.0 mi Calm Calm - N/A   Mostly Cloudy
7:53 PM 26.1 °F - 21.9 °F 84% 29.51 in 10.0 mi Calm Calm - N/A   Scattered Clouds
8:53 PM 21.9 °F - 18.0 °F 85% 29.51 in 10.0 mi Calm Calm - N/A Fog Shallow Fog
9:35 PM 23.0 °F - 19.4 °F 86% 29.49 in 10.0 mi Calm Calm - N/A   Scattered Clouds
9:53 PM 21.0 °F 16.2 °F 18.0 °F 88% 29.50 in 10.0 mi South 3.5 mph - N/A   Mostly Cloudy
10:41 PM 26.6 °F 22.6 °F 23.0 °F 86% 29.50 in 10.0 mi WSW 3.5 mph - N/A   Overcast
10:45 PM 26.6 °F 22.6 °F 24.8 °F 93% 29.50 in 10.0 mi West 3.5 mph - N/A Fog Patches of Fog
10:53 PM 26.1 °F - 24.1 °F 92% 29.51 in 10.0 mi Calm Calm - N/A Fog Patches of Fog
11:34 PM 24.8 °F - 21.2 °F 86% 29.50 in 1.0 mi Calm Calm - N/A Fog Patches of Fog
11:53 PM 21.9 °F - 19.0 °F 89% 29.51 in 0.5 mi Calm Calm - N/A Fog Patches of Fog
11:57 PM 23.0 °F - 19.4 °F 86% 29.50 in 0.5 mi Calm Calm - N/A   Mostly Cloudy